Regional Weather Roundup
Issued by NWS

Home | Current Version | Previous Version | Text Only | Print | Product List | Glossary On
Versions: 1 2 3 4 5 6 7 8 9 10 11 12 13 14 15 16 17 18 19 20 21 22 23 24 25 26 27 28 29 30 31 32 33 34 35 36 37 38 39 40 41 42 43 44 45 46 47 48 49 50
416
ASUS43 KLMK 180402
RWRKY
KENTUCKY REGIONAL WEATHER ROUNDUP
NATIONAL WEATHER SERVICE LOUISVILLE KY
1100 PM EST WED JAN 17 2018

NOTE "FAIR" INDICATES FEW OR NO CLOUDS BELOW 12,000 FEET
WITH NO SIGNIFICANT WEATHER AND/OR OBSTRUCTIONS TO VISIBILITY.

KYZ001>023-026-027-061>063-070>075-180500-
WESTERN AND SOUTH CENTRAL KENTUCKY

CITY           SKY/WX    TMP DP  RH WIND       PRES   REMARKS
PADUCAH        FAIR       8   2  76 CALM      30.58F
HENDERSON      FAIR       6   3  87 S5        30.56F WCI  -3
OWENSBORO      FAIR       4  -1  80 S5        30.57S WCI  -5
HOPKINSVILLE   FAIR       6   3  88 SW5       30.56F WCI  -3
BOWLING GREEN  FAIR       9   5  84 CALM      30.57F
GLASGOW        NOT AVBL
$$

KYZ024-025-028>034-038-045-046-053-180500-
NORTH CENTRAL KENTUCKY

CITY           SKY/WX    TMP DP  RH WIND       PRES   REMARKS
LOUISVILLE/SDF FAIR      14   7  73 SW7       30.53F WCI   4
LOUISVILLE/LOU FAIR      13   8  81 SW7       30.53F WCI   3
FORT KNOX      FAIR       5   3  90 SW3       30.50F
$$

KYZ035>037-039>044-047>052-055>060-089>105-180500-
NORTHEAST KENTUCKY

CITY           SKY/WX    TMP DP  RH WIND       PRES   REMARKS
LEXINGTON      FAIR       8   3  80 S8        30.49S WCI  -4
COVINGTON      FAIR      13   9  84 SW9       30.43F WCI   1
FRANKFORT      FAIR       7   2  80 SW6       30.48F WCI  -3
$$

KYZ054-064>069-076>088-106>120-180500-
SOUTHEAST KENTUCKY

CITY           SKY/WX    TMP DP  RH WIND       PRES   REMARKS
JACKSON        CLOUDY    10   6  84 VRB3      30.45F
LONDON         CLOUDY     5   2  87 CALM      30.49F
SOMERSET       NOT AVBL
MIDDLESBORO    CLOUDY    10   7  86 CALM      30.51S
MONTICELLO     FAIR       2  -3  80 NE9       30.55S WCI -13
$$





USA.gov is the U.S. government's official web portal to all federal, state and local government web resources and services.